Regional Weather Roundup
Issued by NWS State College, PA

Home | Current Version | Previous Version | Graphics & Text | Print | Product List | Glossary Off
Versions: 1 2 3 4 5 6 7 8 9 10 11 12 13 14 15 16 17 18 19 20 21 22 23 24 25 26 27 28 29 30 31 32 33 34 35 36 37 38 39 40 41 42 43 44 45 46 47 48 49 50

000
ASUS41 KCTP 252303
RWRCTP

REGIONAL WEATHER ROUNDUP
NATIONAL WEATHER SERVICE STATE COLLEGE PA
700 PM EDT SAT APR 25 2015

Note: "fair" indicates few or no clouds below 12,000 feet with no
significant weather and/or obstructions to visibility.

* = STATION THAT DOES NOT REPORT PRECIPITATION /E.G. RAIN...SNOW...ETC/
    THUNDER OR FOG.

PAZ002>004-007>009-013>016-020>023-029>032-260000-
WESTERN PENNSYLVANIA

CITY           SKY/WX    TMP DP  RH WIND       PRES   REMARKS
ERIE           MOSUNNY   44  24  45 NE14      29.78S
MEADVILLE      SUNNY     50  24  36 NW9       29.72R
FRANKLIN*      SUNNY     52  16  24 CALM      29.72S
NEW CASTLE     FAIR      53  19  26 NE5       29.72S
BEAVER COUNTY  NOT AVBL
BUTLER*        CLOUDY    52  18  25 SE3       29.71S
PITTSBURGH INT CLOUDY    52  14  22 NE7       29.69F
PITTSBURGH     CLOUDY    51  21  30 N6        29.67F
INDIANA*       SUNNY     54  18  24 NE5       29.71F
LATROBE        CLOUDY    52  27  37 NW7       29.69F
WASHINGTON CO* CLOUDY    50  28  43 NE5       29.70S
$$

PAZ004>006-010>012-017>019-024>028-033>037-041-042-045-046-049>053-260000-
CENTRAL PENNSYLVANIA

CITY           SKY/WX    TMP DP  RH WIND       PRES   REMARKS
BRADFORD       SUNNY     49  21  33 NE9       29.71R
DUBOIS         MOSUNNY   53  17  24 N5        29.69S
CLEARFIELD     MOSUNNY   52  19  27 E3        29.70S
JOHNSTOWN      CLOUDY    48  22  35 E7        29.66F
ALTOONA        CLOUDY    51  24  34 CALM      29.69F
STATE COLLEGE  SUNNY     50  21  32 SE3       29.70F
WILLIAMSPORT   CLEAR     56  22  26 S5        29.70S
SELINSGROVE    PTCLDY    55  24  30 CALM      29.72F
FT INDIANTOWN  PTCLDY    55  19  25 VRB5      29.71F
CAPITAL CITY   MOCLDY    53  24  32 SW5       29.72F
HARRISBURG     MOCLDY    53  31  42 S6        29.72F
YORK           CLOUDY    52  25  35 CALM      29.73F
$$

PAZ038>040-043-044-047-048-054-055-060>062-067>071-260000-
EASTERN PENNSYLVANIA

CITY           SKY/WX    TMP DP  RH WIND       PRES   REMARKS
SCRANTON       CLEAR     55  24  30 N10       29.70F
MOUNT POCONO   CLEAR     50  21  32 N9        29.68F
ALLENTOWN      CLEAR     54  28  36 SW6       29.70F
QUAKERTOWN*    PTCLDY    55  25  30 W3        29.72S
READING        PTCLDY    55  23  28 SW5       29.71S
LANCASTER      PTCLDY    51  25  36 SW7       29.72F
COATESVILLE    MOCLDY    50  25  37 W3        29.74S
POTTSTOWN      PTCLDY    54  24  31 SW5       29.73S
BLUE BELL      PTCLDY    55  28  35 CALM      29.71S
DOYLESTOWN     PTCLDY    54  21  27 W7        29.70F
WILLOW GROVE   NOT AVBL
NORTH PHILA    MOCLDY    57  22  25 NW6       29.73F
PHILADELPHIA   CLOUDY    56  25  30 SW12      29.74S
$$


USA.gov is the U.S. government's official web portal to all federal, state and local government web resources and services.